Retour au catalogue

STARLINK-37068

ActifCommunicationsVLEO
NORAD 68085·PAYLOAD·🇺🇸 United States

Lancé Mar 4, 2026 depuis Vandenberg Space Force Base

Loading…

Prochains Passages (prochaines 24 heures)

TLE

FraisSource: CelesTrak SupGP

Époque: Sep 15, 2026, 03:41 UTC

1 68085C 26042S   26258.15395833  .00065398  00000+0  19315-2 0  2580
2 68085  53.1589  12.8402 0001105  88.4029 318.5014 15.34369517    12

Suivez STARLINK-37068 en temps réel avec AllMySat

Download on the App Store